Regional Weather Roundup
Issued by NWS

Home | Current Version | Previous Version | Graphics & Text | Print | Product List | Glossary On
Versions: 1 2 3 4 5 6 7 8 9 10 11 12 13 14 15 16 17 18 19 20 21 22 23 24 25 26 27
000
ASUS45 KBOU 171610
RWRCO

WEATHER ROUNDUP FOR COLORADO
NATIONAL WEATHER SERVICE DENVER/BOULDER CO
900 AM MST SUN DEC 17 2017

NOTE: "FAIR" INDICATES FEW OR NO CLOUDS BELOW 12000 FEET WITH NO
SIGNIFICANT WEATHER AND/OR OBSTRUCTIONS TO VISIBILITY.

COZ001>005-013-030-031-171700-
...NORTHWEST COLORADO...

CITY           SKY/WX    TMP DP  RH WIND       PRES   REMARKS
CRAIG          CLOUDY    23  16  74 N5        30.07S WCI  17
HAYDEN         CLOUDY    22  15  75 NE6       30.07S WCI  14
MEEKER         CLOUDY    20  11  68 CALM      30.07R
RABBIT EARS PA SNOW      14  14 100 W9G16     29.97S VSB 1/4 WCI   2
STEAMBOAT SPGS CLOUDY    17  11  78 CALM      30.06R
WALDEN         FAIR       7   0  72 N6        30.00R WCI  -3
$$

COZ006>008-011-171700-
...WEST CENTRAL VALLEYS...

CITY           SKY/WX    TMP DP  RH WIND       PRES   REMARKS
GRAND JUNCTION FAIR      24   8  50 SE7       30.08R WCI  16
MONTROSE       FAIR      22   9  57 S5        30.09R WCI  16
EAGLE          FAIR       8   3  80 E5        30.12R WCI   0
RIFLE          FAIR      17   8  67 SE3       30.09R
DELTA          FAIR      22   3  44 CALM      30.10R
NUCLA          FAIR      23   0  36 E5        30.09R WCI  17
$$

COZ017>023-064>068-171700-
...SOUTHWEST COLORADO...

CITY           SKY/WX    TMP DP  RH WIND       PRES   REMARKS
DURANGO        FAIR      24  10  55 CALM      30.04R
CORTEZ         FAIR      28   6  39 NE5       30.04R WCI  23
PAGOSA SPRINGS FAIR      30   4  32 E3        30.03F
TELLURIDE      FAIR      25  -2  31 CALM      30.04R
WOLF CREEK PAS FAIR      16  -6  38 S10       30.07S WCI   3
$$

COZ009-010-012-014-032>034-037-058>063-171700-
...CENTRAL COLORADO...

CITY           SKY/WX    TMP DP  RH WIND       PRES   REMARKS
ASPEN          FAIR      20   7  57 SE3       30.00S
BUENA VISTA    FAIR      20  11  68 CALM      29.98S
COPPER MTN     NOT AVBL
BERTHOUD PASS  FAIR      12   1  62 W33G39    29.94S WCI -10
COTTONWOOD PAS FAIR      34  -4  19 N6        29.96S WCI  29
GUNNISON       FAIR      10   5  80 CALM      30.07R
KREMMLING      FAIR       7   1  78 CALM      30.09R
LEADVILLE      FAIR      13  -4  46 NE10      29.96F WCI   0
MONARCH PASS   FAIR      18  -4  38 W28       30.10R WCI  -1
SALIDA         FAIR      21  10  60 CALM      30.07R
SUNLIGHT       FAIR      18  -4  38 SW9       30.04R WCI   6
WILKERSON PASS CLOUDY    21  -4  33 W12G21    29.98S WCI   9
$$

COZ069>075-171700-
...SAN LUIS VALLEY/SANGRE DE CRISTO MOUNTAINS...

CITY           SKY/WX    TMP DP  RH WIND       PRES   REMARKS
ALAMOSA        FAIR      22  12  65 N6        30.01R WCI  14
DEL NORTE      FAIR      21  10  63 W6        30.02S WCI  14
LA VETA PASS   FAIR      27   3  36 S29G41      N/A  WCI  11
SAGUACHE       FAIR      21   9  58 NW5       30.02R WCI  15
$$

COZ035-036-038>040-171700-
...NORTHERN COLORADO FRONT RANGE...

CITY           SKY/WX    TMP DP  RH WIND       PRES   REMARKS
DENVER INTL AP CLOUDY    29  26  89 SE5       30.01S WCI  24
DMNS CITY PARK NOT AVBL
AURORA         CLOUDY    30  29  96 E3        30.01R
FRONT RANGE AP CLOUDY    32  30  93 CALM      30.02
ERIE MUNI ARPT CLOUDY    32  30  91 CALM      30.08R
BOULDER MUN AP CLOUDY    32  30  93 NE5       30.02R FOG     WCI  27
CENTENNIAL     CLOUDY    30  25  81 CALM      30.00R
BROOMFIELD     CLOUDY    30  28  93 E5        30.01R WCI  25
FORT COLLINS   CLOUDY    31  29  92 S6        30.03R WCI  25
LONGMONT       CLOUDY    33  32  94 E3        30.05R
$$

COZ041-046-047-076>085-087-088-171700-
...PIKES PEAK/PALMER DIVIDE AND SOUTHERN FOOTHILLS...

CITY           SKY/WX    TMP DP  RH WIND       PRES   REMARKS
COLO. SPRINGS  CLOUDY    25  24  96 S5        30.02S WCI  19
A. F. ACADEMY  CLOUDY    24  22  91 S3        29.99S
SCHRIEVER AFB  PTSUNNY   23  23 100 W5        30.01F FOG     WCI  17
CHEYENNE MTN   PTSUNNY   22  22  98 CALM      29.93S FOG
ELLICOTT       CLOUDY   N/A N/A N/A W6        30.00S
FALCON         FOG       23  23  99 SW5       30.00S VSB<1/4 WCI  17
FORT CARSON    CLOUDY    27  25  93 SW5       30.00F WCI  21
LIMON          CLOUDY    30  25  81 N6        30.02S WCI  24
MONUMENT HILL  CLOUDY    23  23 100 CALM      30.00R
CANON CITY     CLOUDY    30  28  93 CALM      30.03S
WALSENBURG     CLOUDY    27  25  93 CALM      30.02S
TRINIDAD       CLOUDY    27  23  85 SE3       30.02R
$$

COZ042>045-048>051-090-091-171700-
...NORTHEAST COLORADO...

CITY           SKY/WX    TMP DP  RH WIND       PRES   REMARKS
GREELEY ARPT   CLOUDY    31  30  96 SE7       30.04S WCI  24
AKRON          CLOUDY    30  28  92 S6        30.03R WCI  24
BURLINGTON     CLOUDY    33  30  88 N9        30.04R WCI  25
WRAY           CLOUDY    34  34 100 NW7       30.06R WCI  28
YUMA           CLOUDY    32  30  93 CALM      30.04S
STERLING       CLOUDY    32  32 100 CALM      30.04S
HOLYOKE        PTSUNNY   34  32  93 CALM      30.05S
FORT MORGAN    CLOUDY    31  30  96 CALM      30.05R
$$

COZ086-089-092>099-171700-
...SOUTHEAST COLORADO...

CITY           SKY/WX    TMP DP  RH WIND       PRES   REMARKS
PUEBLO         CLOUDY    32  26  78 W7        30.05S WCI  26
LA JUNTA       CLOUDY    35  27  72 W8        30.06R WCI  29
LAMAR          CLOUDY    36  27  69 NW6       30.04R
SPRINGFIELD      N/A     33  27  78 N18G26    30.00F WCI  22
$$




USA.gov is the U.S. government's official web portal to all federal, state and local government web resources and services.